TimeCDT,TemperatureF,Dew PointF,Humidity,Sea Level PressureIn,VisibilityMPH,Wind Direction,Wind SpeedMPH,Gust SpeedMPH,PrecipitationIn,Events,Conditions,WindDirDegrees,DateUTC
12:53 AM,70.0,50.0,49,29.93,10.0,South,9.2,21.9,N/A,,Clear,180,2012-10-04 05:53:00
1:53 AM,68.0,50.0,52,29.95,10.0,South,8.1,-,N/A,,Clear,180,2012-10-04 06:53:00
2:53 AM,66.0,50.0,56,29.96,10.0,South,6.9,-,N/A,,Clear,170,2012-10-04 07:53:00
3:53 AM,66.0,50.0,56,29.96,10.0,South,5.8,-,N/A,,Clear,180,2012-10-04 08:53:00
4:53 AM,64.0,51.1,63,30.01,10.0,South,4.6,-,N/A,,Clear,170,2012-10-04 09:53:00
5:53 AM,60.1,51.1,72,30.06,10.0,NNW,3.5,-,N/A,,Clear,340,2012-10-04 10:53:00
6:53 AM,57.0,50.0,77,30.08,10.0,NNE,3.5,-,N/A,,Clear,20,2012-10-04 11:53:00
7:53 AM,57.9,51.1,78,30.08,10.0,ESE,8.1,-,N/A,,Clear,110,2012-10-04 12:53:00
8:53 AM,63.0,52.0,67,30.12,10.0,North,13.8,-,N/A,,Clear,350,2012-10-04 13:53:00
9:53 AM,63.0,45.0,52,30.15,10.0,North,20.7,25.3,N/A,,Clear,10,2012-10-04 14:53:00
10:53 AM,62.1,44.1,52,30.17,8.0,North,18.4,24.2,N/A,,Overcast,10,2012-10-04 15:53:00
11:53 AM,63.0,44.1,50,30.18,10.0,NNE,13.8,-,N/A,,Overcast,20,2012-10-04 16:53:00
12:53 PM,63.0,44.1,50,30.18,10.0,North,16.1,-,N/A,,Overcast,10,2012-10-04 17:53:00
1:53 PM,64.9,45.0,48,30.17,10.0,NNE,15.0,-,N/A,,Overcast,20,2012-10-04 18:53:00
2:53 PM,64.9,44.1,47,30.16,10.0,NNE,15.0,20.7,N/A,,Overcast,30,2012-10-04 19:53:00
3:53 PM,64.9,44.1,47,30.15,10.0,NNE,13.8,-,N/A,,Overcast,20,2012-10-04 20:53:00
4:53 PM,64.0,44.1,48,30.15,10.0,NNE,12.7,-,N/A,,Overcast,20,2012-10-04 21:53:00
5:53 PM,61.0,42.1,50,30.16,10.0,North,12.7,-,N/A,,Overcast,360,2012-10-04 22:53:00
6:53 PM,57.9,41.0,53,30.17,10.0,North,13.8,-,N/A,,Overcast,10,2012-10-04 23:53:00
7:53 PM,55.9,41.0,57,30.19,10.0,NNE,12.7,-,N/A,,Overcast,20,2012-10-05 00:53:00
8:53 PM,55.0,39.9,57,30.19,10.0,NNE,15.0,-,N/A,,Overcast,30,2012-10-05 01:53:00
9:53 PM,54.0,39.9,59,30.20,10.0,NNE,13.8,-,N/A,,Overcast,30,2012-10-05 02:53:00
10:53 PM,54.0,41.0,62,30.20,10.0,NE,10.4,-,N/A,,Overcast,40,2012-10-05 03:53:00
11:53 PM,54.0,39.0,57,30.20,10.0,NNE,8.1,-,N/A,,Overcast,30,2012-10-05 04:53:00